{"data":{"norad_id":51769,"epoch":"2026-09-20T04:10:35.125824Z","epoch_age_seconds":80339,"freshness":"FRESH","line1":"1 51769U 22017B   26263.17401766  .00004997  00000+0  31371-3 0  9997","line2":"2 51769  53.2153 184.7922 0001625  80.7789 279.3388 15.10922333251989","mean_motion":15.10922333,"eccentricity":0.0001625,"inclination_deg":53.2153,"raan_deg":184.7922,"arg_perigee_deg":80.7789,"mean_anomaly_deg":279.3388,"bstar":0.00031371,"rev_number":25198,"period_min":95.306023913275,"perigee_km":532.26271866112,"apogee_km":534.50896358448,"semimajor_km":6911.5228411228,"source":"CELESTRAK","updated_at":"2026-09-20T09:00:39.935916Z"}}